This is the latest recevied weather packets stored in our database for station/object W1REE. If no packets are shown the sender has not sent any weather packets the latest 10 day(s).
| Time | Temp. | Humidity | Pressure | Rain* | Wind** | Luminosity | Snow |
|---|---|---|---|---|---|---|---|
| 1777446284 | 5° C | 85% | 1023.8 hPa | 0 mm | - | 0 W/m² | - |
| 1777445982 | 5° C | 85% | 1024.1 hPa | 0 mm | - | 0 W/m² | - |
| 1777445677 | 5.56° C | 84% | 1024.2 hPa | 0 mm | - | 0 W/m² | - |
| 1777445373 | 5.56° C | 81% | 1024.3 hPa | 0 mm | - | 0 W/m² | - |
| 1777444766 | 5.56° C | 81% | 1024.3 hPa | 1.27 mm | - | 0 W/m² | - |
| 1777444462 | 5.56° C | 80% | 1024.3 hPa | 1.27 mm | - | 0 W/m² | - |
| 1777444160 | 6.11° C | 78% | 1024.4 hPa | 0 mm | - | 0 W/m² | - |
| 1777443855 | 6.11° C | 78% | 1024.4 hPa | 0 mm | - | 0 W/m² | - |
| 1777443551 | 6.11° C | 76% | 1024.1 hPa | 0 mm | - | 0 W/m² | - |
| 1777443247 | 6.11° C | 77% | 1024.2 hPa | 0 mm | - | 0 W/m² | - |
| 1777442945 | 6.11° C | 75% | 1024.3 hPa | 0 mm | - | 0 W/m² | - |
| 1777442641 | 6.11° C | 73% | 1024.3 hPa | 0 mm | - | 0 W/m² | - |
| 1777442336 | 6.67° C | 73% | 1024.2 hPa | 0 mm | - | 0 W/m² | - |
| 1777442034 | 6.67° C | 68% | 1024.2 hPa | 0 mm | - | 0 W/m² | - |
| 1777441728 | 7.22° C | 64% | 1024.3 hPa | 0 mm | - | 0 W/m² | - |
| 1777441424 | 7.22° C | 64% | 1024 hPa | 0 mm | - | 0 W/m² | - |
| 1777441118 | 7.78° C | 62% | 1024 hPa | 0 mm | - | 0 W/m² | - |
| 1777440815 | 7.78° C | 64% | 1024 hPa | 0 mm | - | 0 W/m² | - |
| 1777440511 | 8.33° C | 57% | 1023.8 hPa | 0 mm | - | 0 W/m² | - |
| 1777440207 | 8.33° C | 54% | 1023.7 hPa | 0 mm | - | 0 W/m² | - |
| 1777439904 | 8.33° C | 52% | 1023.8 hPa | 0 mm | - | 0 W/m² | - |
| 1777439600 | 8.33° C | 51% | 1023.6 hPa | 0 mm | - | 0 W/m² | - |
| 1777439295 | 8.89° C | 51% | 1023.6 hPa | 0 mm | - | 0 W/m² | - |
| 1777438991 | 8.89° C | 51% | 1023.2 hPa | 0 mm | - | 0 W/m² | - |
| 1777438689 | 9.44° C | 49% | 1023.5 hPa | 0 mm | - | 0 W/m² | - |
* Rain latest hour (hover to see other rain measurements)
** Current wind speed in m/s (hover to see current wind gust speed)